| time (UTC) | temp F | wind direction | speed knots | gust knots | rain 1hr in | rain 24hr in | rain mn in | humidity % | barometer mb |
| 20260503021927 | 40 | 223 | 0.0 | 0.0 | 0.00 | 0.00 | 0.00 | 83 | 1019.5 |
| 20260503021424 | 40 | 223 | 0.0 | 0.0 | 0.00 | 0.00 | 0.00 | 83 | 1019.3 |
| 20260503020921 | 41 | 223 | 0.0 | 0.0 | 0.00 | 0.00 | 0.00 | 82 | 1019.3 |
| 20260503020419 | 41 | 223 | 0.0 | 0.0 | 0.00 | 0.00 | 0.00 | 81 | 1019.1 |
| 20260503015915 | 41 | 223 | 0.0 | 0.0 | 0.00 | 0.00 | 0.00 | 81 | 1019.1 |
| 20260503015412 | 42 | 223 | 0.0 | 0.0 | 0.00 | 0.00 | 0.00 | 80 | 1019.3 |
| 20260503014908 | 42 | 223 | 0.0 | 0.0 | 0.00 | 0.00 | 0.00 | 80 | 1019.0 |
| 20260503014406 | 42 | 223 | 0.0 | 0.0 | 0.00 | 0.00 | 0.00 | 77 | 1019.0 |
| 20260503013903 | 43 | 223 | 0.0 | 0.0 | 0.00 | 0.00 | 0.00 | 78 | 1018.8 |
| 20260503013400 | 43 | 223 | 0.0 | 0.0 | 0.00 | 0.00 | 0.00 | 79 | 1018.9 |
| 20260503012857 | 43 | 223 | 0.0 | 0.0 | 0.00 | 0.00 | 0.00 | 78 | 1018.9 |
| 20260503012355 | 43 | 223 | 0.0 | 0.0 | 0.00 | 0.00 | 0.00 | 75 | 1018.8 |
| 20260503011851 | 44 | 223 | 0.0 | 0.0 | 0.00 | 0.00 | 0.00 | 74 | 1018.6 |
| 20260503011348 | 44 | 223 | 0.0 | 0.0 | 0.00 | 0.00 | 0.00 | 73 | 1018.7 |
| 20260503010845 | 44 | 223 | 0.0 | 0.0 | 0.00 | 0.00 | 0.00 | 70 | 1018.6 |
| 20260503010342 | 45 | 223 | 0.0 | 0.0 | 0.00 | 0.00 | 0.00 | 69 | 1018.6 |
| 20260503005838 | 45 | 223 | 0.0 | 0.0 | 0.00 | 0.00 | 0.00 | 68 | 1018.3 |
| 20260503005336 | 45 | 223 | 0.0 | 0.0 | 0.00 | 0.00 | 0.00 | 67 | 1018.5 |
| 20260503004832 | 46 | 223 | 0.0 | 0.0 | 0.00 | 0.00 | 0.00 | 66 | 1018.5 |
| 20260503004330 | 46 | 223 | 0.0 | 0.0 | 0.00 | 0.00 | 0.00 | 64 | 1018.2 |
| 20260503003827 | 47 | 223 | 0.0 | 0.0 | 0.00 | 0.00 | 0.00 | 62 | 1018.3 |
| 20260503003324 | 47 | 223 | 0.0 | 0.0 | 0.00 | 0.00 | 0.00 | 60 | 1018.1 |
| 20260503002821 | 48 | 223 | 0.0 | 0.0 | 0.00 | 0.00 | 0.00 | 58 | 1018.1 |
| 20260503002318 | 49 | 223 | 0.0 | 0.0 | 0.00 | 0.00 | 0.00 | 56 | 1017.9 |
| 20260503001814 | 50 | 223 | 0.0 | 0.0 | 0.00 | 0.00 | 0.00 | 55 | 1017.9 |
| 20260503001311 | 51 | 223 | 0.0 | 0.9 | 0.00 | 0.00 | 0.00 | 51 | 1017.9 |
| 20260503000808 | 51 | 226 | 1.7 | 1.7 | 0.00 | 0.00 | 0.00 | 50 | 1017.9 |
| 20260503000306 | 51 | 230 | 0.0 | 0.0 | 0.00 | 0.00 | 0.00 | 53 | 1017.6 |
| 20260502235802 | 51 | 230 | 0.0 | 0.9 | 0.00 | 0.00 | 0.00 | 50 | 1017.9 |
| 20260502235300 | 51 | 235 | 2.6 | 3.5 | 0.00 | 0.00 | 0.00 | 49 | 1017.7 |
| 20260502234756 | 52 | 227 | 0.9 | 1.7 | 0.00 | 0.00 | 0.00 | 49 | 1017.7 |
| 20260502234253 | 52 | 122 | 0.0 | 0.0 | 0.00 | 0.00 | 0.00 | 52 | 1017.7 |
| 20260502233749 | 52 | 113 | 0.0 | 0.0 | 0.00 | 0.00 | 0.00 | 54 | 1017.7 |
| 20260502233247 | 52 | 113 | 0.0 | 0.0 | 0.00 | 0.00 | 0.00 | 53 | 1017.5 |
| 20260502232742 | 52 | 122 | 0.0 | 0.0 | 0.00 | 0.00 | 0.00 | 51 | 1017.4 |
| 20260502232239 | 52 | 113 | 0.9 | 0.9 | 0.00 | 0.00 | 0.00 | 48 | 1017.3 |
| 20260502231736 | 53 | 223 | 0.0 | 0.9 | 0.00 | 0.00 | 0.00 | 48 | 1017.5 |
| 20260502231234 | 53 | 220 | 0.0 | 0.0 | 0.00 | 0.00 | 0.00 | 51 | 1017.4 |
| 20260502230732 | 53 | 220 | 0.0 | 0.0 | 0.00 | 0.00 | 0.00 | 49 | 1017.3 |
| 20260502230230 | 54 | 127 | 0.0 | 0.0 | 0.00 | 0.00 | 0.00 | 49 | 1017.3 |
| 20260502225726 | 55 | 103 | 0.0 | 0.0 | 0.00 | 0.00 | 0.00 | 47 | 1017.3 |
| 20260502225223 | 55 | 140 | 0.0 | 0.0 | 0.00 | 0.00 | 0.00 | 45 | 1017.4 |
| 20260502224719 | 55 | 194 | 0.0 | 0.0 | 0.00 | 0.00 | 0.00 | 46 | 1017.0 |
| 20260502224216 | 55 | 256 | 1.7 | 2.6 | 0.00 | 0.00 | 0.00 | 44 | 1017.3 |
| 20260502223714 | 55 | 253 | 0.0 | 1.7 | 0.00 | 0.00 | 0.00 | 43 | 1017.1 |
| 20260502223212 | 55 | 250 | 0.9 | 2.6 | 0.00 | 0.00 | 0.00 | 44 | 1017.2 |
| 20260502222709 | 55 | 271 | 0.0 | 1.7 | 0.00 | 0.00 | 0.00 | 43 | 1017.2 |
| 20260502222206 | 55 | 184 | 0.0 | 1.7 | 0.00 | 0.00 | 0.00 | 42 | 1017.3 |
| 20260502221702 | 56 | 265 | 1.7 | 6.1 | 0.00 | 0.00 | 0.00 | 40 | 1017.2 |
| 20260502221159 | 56 | 280 | 0.0 | 1.7 | 0.00 | 0.00 | 0.00 | 40 | 1017.2 |
| 20260502220655 | 58 | 261 | 1.7 | 2.6 | 0.00 | 0.00 | 0.00 | 40 | 1017.1 |
| 20260502220151 | 59 | 237 | 0.0 | 5.2 | 0.00 | 0.00 | 0.00 | 43 | 1017.0 |
| 20260502215648 | 59 | 7 | 0.0 | 0.9 | 0.00 | 0.00 | 0.00 | 41 | 1017.0 |
| 20260502215145 | 56 | 185 | 0.9 | 1.7 | 0.00 | 0.00 | 0.00 | 42 | 1017.0 |
| 20260502214642 | 57 | 150 | 0.9 | 3.5 | 0.00 | 0.00 | 0.00 | 43 | 1016.9 |
| 20260502214139 | 62 | 260 | 1.7 | 2.6 | 0.00 | 0.00 | 0.00 | 39 | 1016.8 |
| 20260502213637 | 59 | 118 | 0.9 | 0.9 | 0.00 | 0.00 | 0.00 | 42 | 1016.8 |
| 20260502213134 | 56 | 173 | 0.9 | 1.7 | 0.00 | 0.00 | 0.00 | 42 | 1016.8 |
| 20260502212633 | 55 | 247 | 1.7 | 1.7 | 0.00 | 0.00 | 0.00 | 45 | 1016.9 |
| 20260502212125 | 54 | 238 | 0.0 | 0.9 | 0.00 | 0.00 | 0.00 | 45 | 1017.0 |
| 20260502211620 | 55 | 214 | 0.9 | 1.7 | 0.00 | 0.00 | 0.00 | 45 | 1017.0 |
| 20260502211117 | 56 | 253 | 0.0 | 0.0 | 0.00 | 0.00 | 0.00 | 44 | 1016.9 |
| 20260502210615 | 57 | 293 | 0.9 | 2.6 | 0.00 | 0.00 | 0.00 | 47 | 1016.8 |
| 20260502210111 | 61 | 225 | 0.0 | 1.7 | 0.00 | 0.00 | 0.00 | 42 | 1016.8 |
| 20260502205608 | 63 | 139 | 0.0 | 1.7 | 0.00 | 0.00 | 0.00 | 45 | 1016.8 |
| 20260502205105 | 61 | 244 | 0.9 | 3.5 | 0.00 | 0.00 | 0.00 | 40 | 1017.0 |
| 20260502204601 | 56 | 227 | 0.0 | 1.7 | 0.00 | 0.00 | 0.00 | 49 | 1016.8 |
| 20260502204059 | 55 | 268 | 0.9 | 2.6 | 0.00 | 0.00 | 0.00 | 44 | 1016.9 |
| 20260502203556 | 56 | 244 | 0.0 | 0.9 | 0.00 | 0.00 | 0.00 | 47 | 1017.0 |
| 20260502203054 | 56 | 241 | 0.0 | 1.7 | 0.00 | 0.00 | 0.00 | 43 | 1017.0 |
| 20260502202549 | 55 | 234 | 1.7 | 3.5 | 0.00 | 0.00 | 0.00 | 44 | 1017.2 |
| 20260502202048 | 55 | 55 | 0.9 | 1.7 | 0.00 | 0.00 | 0.00 | 46 | 1017.0 |
| 20260502201543 | 55 | 187 | 0.0 | 0.9 | 0.00 | 0.00 | 0.00 | 47 | 1017.2 |
| 20260502201040 | 56 | 251 | 0.9 | 1.7 | 0.00 | 0.00 | 0.00 | 47 | 1017.1 |
| 20260502200536 | 55 | 263 | 0.9 | 2.6 | 0.00 | 0.00 | 0.00 | 47 | 1017.2 |
| 20260502200034 | 54 | 253 | 0.9 | 1.7 | 0.00 | 0.00 | 0.00 | 47 | 1017.3 |
| 20260502195531 | 54 | 267 | 2.6 | 2.6 | 0.00 | 0.00 | 0.00 | 43 | 1017.3 |
| 20260502195027 | 54 | 188 | 0.9 | 0.9 | 0.00 | 0.00 | 0.00 | 44 | 1017.2 |
| 20260502194524 | 55 | 259 | 0.0 | 2.6 | 0.00 | 0.00 | 0.00 | 47 | 1017.4 |
| 20260502194020 | 55 | 219 | 0.9 | 2.6 | 0.00 | 0.00 | 0.00 | 44 | 1017.5 |
| 20260502193518 | 56 | 43 | 0.0 | 0.9 | 0.00 | 0.00 | 0.00 | 50 | 1017.2 |
| 20260502193014 | 56 | 162 | 0.9 | 3.5 | 0.00 | 0.00 | 0.00 | 50 | 1017.4 |
| 20260502192510 | 56 | 118 | 0.9 | 1.7 | 0.00 | 0.00 | 0.00 | 45 | 1017.5 |
| 20260502192008 | 58 | 249 | 0.9 | 2.6 | 0.00 | 0.00 | 0.00 | 43 | 1017.7 |
| 20260502191504 | 56 | 94 | 0.0 | 0.9 | 0.00 | 0.00 | 0.00 | 53 | 1017.6 |
| 20260502191002 | 55 | 150 | 0.9 | 3.5 | 0.00 | 0.00 | 0.00 | 48 | 1017.9 |
| 20260502190459 | 55 | 132 | 0.9 | 2.6 | 0.00 | 0.00 | 0.00 | 46 | 1017.9 |
| 20260502185955 | 55 | 246 | 0.9 | 3.5 | 0.00 | 0.00 | 0.00 | 47 | 1017.9 |
| 20260502185451 | 55 | 173 | 0.9 | 3.5 | 0.00 | 0.00 | 0.00 | 47 | 1017.9 |
| 20260502184948 | 55 | 100 | 0.9 | 5.2 | 0.00 | 0.00 | 0.00 | 47 | 1017.8 |
| 20260502184443 | 56 | 262 | 0.9 | 1.7 | 0.00 | 0.00 | 0.00 | 46 | 1017.7 |
| 20260502183940 | 58 | 197 | 0.0 | 0.9 | 0.00 | 0.00 | 0.00 | 45 | 1017.7 |
| 20260502183436 | 57 | 300 | 0.0 | 1.7 | 0.00 | 0.00 | 0.00 | 50 | 1017.8 |
| 20260502182931 | 55 | 151 | 0.0 | 1.7 | 0.00 | 0.00 | 0.00 | 47 | 1017.9 |
| 20260502182427 | 55 | 58 | 0.0 | 0.0 | 0.00 | 0.00 | 0.00 | 47 | 1017.9 |
| 20260502181924 | 54 | 244 | 0.0 | 0.9 | 0.00 | 0.00 | 0.00 | 46 | 1017.9 |
| 20260502181422 | 54 | 176 | 0.0 | 1.7 | 0.00 | 0.00 | 0.00 | 47 | 1018.0 |
| 20260502180920 | 55 | 355 | 0.0 | 0.9 | 0.00 | 0.00 | 0.00 | 48 | 1018.1 |
| 20260502180417 | 54 | 302 | 0.0 | 0.0 | 0.00 | 0.00 | 0.00 | 47 | 1018.1 |
| 20260502170336 | 56 | 248 | 3.5 | 3.5 | 0.00 | 0.00 | 0.00 | 44 | 1018.3 |
| 20260502164323 | 53 | 229 | 2.6 | 3.5 | 0.00 | 0.00 | 0.00 | 46 | 1018.5 |
| 20260502163819 | 55 | 177 | 0.0 | 0.9 | 0.00 | 0.00 | 0.00 | 50 | 1018.6 |
| 20260502163316 | 55 | 177 | 0.0 | 0.0 | 0.00 | 0.00 | 0.00 | 48 | 1018.5 |
| 20260502162813 | 56 | 44 | 0.0 | 0.9 | 0.00 | 0.00 | 0.00 | 46 | 1018.5 |
| 20260502162310 | 59 | 181 | 1.7 | 2.6 | 0.00 | 0.00 | 0.00 | 42 | 1018.7 |
| 20260502161807 | 55 | 41 | 0.0 | 1.7 | 0.00 | 0.00 | 0.00 | 58 | 1018.7 |
| 20260502161303 | 53 | 279 | 0.9 | 2.6 | 0.00 | 0.00 | 0.00 | 49 | 1018.9 |
| 20260502160801 | 54 | 284 | 1.7 | 5.2 | 0.00 | 0.00 | 0.00 | 48 | 1018.7 |
| 20260502160300 | 55 | 239 | 0.0 | 3.5 | 0.00 | 0.00 | 0.00 | 46 | 1018.5 |
| 20260502152229 | 55 | 247 | 1.7 | 1.7 | 0.00 | 0.00 | 0.00 | 50 | 1019.0 |
| 20260502151727 | 54 | 190 | 2.6 | 5.2 | 0.00 | 0.00 | 0.00 | 46 | 1018.9 |
| 20260502151223 | 53 | 244 | 1.7 | 1.7 | 0.00 | 0.00 | 0.00 | 49 | 1018.8 |
| 20260502150721 | 53 | 236 | 0.9 | 1.7 | 0.00 | 0.00 | 0.00 | 51 | 1018.9 |
| 20260502150218 | 53 | 248 | 0.9 | 1.7 | 0.00 | 0.00 | 0.00 | 57 | 1018.9 |
| 20260502130606 | 47 | 130 | 0.0 | 0.0 | 0.00 | 0.00 | 0.00 | 82 | 1019.0 |
| 20260502130104 | 47 | 252 | 0.0 | 0.9 | 0.00 | 0.00 | 0.00 | 85 | 1018.9 |
| 20260502123549 | 43 | 93 | 0.0 | 0.0 | 0.00 | 0.00 | 0.00 | 99 | 1018.8 |
| 20260502123045 | 41 | 97 | 0.0 | 0.0 | 0.00 | 0.00 | 0.00 | 99 | 1019.0 |
| 20260502122542 | 42 | 105 | 0.0 | 0.0 | 0.00 | 0.00 | 0.00 | 99 | 1018.7 |
| 20260502122040 | 40 | 105 | 0.0 | 0.0 | 0.00 | 0.00 | 0.00 | 99 | 1018.6 |
| 20260502121537 | 40 | 106 | 0.0 | 0.0 | 0.00 | 0.00 | 0.00 | 99 | 1018.7 |
| 20260502121034 | 40 | 118 | 0.0 | 0.0 | 0.00 | 0.00 | 0.00 | 99 | 1018.9 |
| 20260502120530 | 38 | 120 | 0.0 | 0.0 | 0.00 | 0.00 | 0.00 | 99 | 1018.9 |
| 20260502115525 | 35 | 120 | 0.0 | 0.0 | 0.00 | 0.00 | 0.00 | 99 | 1018.6 |
| 20260502115021 | 35 | 120 | 0.0 | 0.0 | 0.00 | 0.00 | 0.00 | 99 | 1018.5 |
| 20260502114518 | 34 | 120 | 0.0 | 0.0 | 0.00 | 0.00 | 0.00 | 99 | 1018.6 |
| 20260502114015 | 34 | 120 | 0.0 | 0.0 | 0.00 | 0.00 | 0.00 | 99 | 1018.5 |
| 20260502113512 | 33 | 120 | 0.0 | 0.0 | 0.00 | 0.00 | 0.00 | 99 | 1018.5 |
| 20260502113011 | 33 | 120 | 0.0 | 0.0 | 0.00 | 0.00 | 0.00 | 99 | 1018.5 |
| 20260502112508 | 33 | 120 | 0.0 | 0.0 | 0.00 | 0.00 | 0.00 | 99 | 1018.7 |
| 20260502112006 | 33 | 120 | 0.0 | 0.0 | 0.00 | 0.00 | 0.00 | 99 | 1018.5 |
| 20260502111503 | 32 | 120 | 0.0 | 0.0 | 0.00 | 0.00 | 0.00 | 99 | 1018.3 |
| 20260502111000 | 32 | 120 | 0.0 | 0.0 | 0.00 | 0.00 | 0.00 | 99 | 1018.3 |
| 20260502110457 | 31 | 120 | 0.0 | 0.0 | 0.00 | 0.00 | 0.00 | 99 | 1018.3 |
| 20260502105955 | 31 | 120 | 0.0 | 0.0 | 0.00 | 0.00 | 0.00 | 99 | 1018.3 |
| 20260502105452 | 31 | 120 | 0.0 | 0.0 | 0.00 | 0.00 | 0.00 | 99 | 1018.2 |
| 20260502104950 | 31 | 120 | 0.0 | 0.0 | 0.00 | 0.00 | 0.00 | 99 | 1018.1 |
| 20260502104447 | 31 | 109 | 0.0 | 0.0 | 0.00 | 0.00 | 0.00 | 99 | 1018.0 |
| 20260502103944 | 31 | 109 | 0.0 | 0.0 | 0.00 | 0.00 | 0.00 | 99 | 1018.0 |
| 20260502103441 | 31 | 109 | 0.0 | 0.0 | 0.00 | 0.00 | 0.00 | 99 | 1017.8 |
| 20260502102938 | 31 | 109 | 0.0 | 0.0 | 0.00 | 0.00 | 0.00 | 99 | 1018.2 |
| 20260502102435 | 32 | 109 | 0.0 | 0.0 | 0.00 | 0.00 | 0.00 | 99 | 1018.2 |
| 20260502101932 | 32 | 109 | 0.0 | 0.0 | 0.00 | 0.00 | 0.00 | 99 | 1018.3 |
| 20260502101431 | 32 | 111 | 0.0 | 0.0 | 0.00 | 0.00 | 0.00 | 99 | 1018.7 |
| 20260502100928 | 32 | 109 | 0.0 | 0.0 | 0.00 | 0.00 | 0.00 | 99 | 1018.6 |
| 20260502100427 | 32 | 109 | 0.0 | 0.0 | 0.00 | 0.00 | 0.00 | 99 | 1018.5 |
| 20260502091401 | 32 | 109 | 0.0 | 0.0 | 0.00 | 0.00 | 0.00 | 99 | 1018.7 |
| 20260502090859 | 32 | 109 | 0.0 | 0.0 | 0.00 | 0.00 | 0.00 | 99 | 1018.9 |
| 20260502090355 | 32 | 111 | 0.0 | 0.0 | 0.00 | 0.00 | 0.00 | 99 | 1018.7 |
| 20260502071250 | 33 | 109 | 0.0 | 0.0 | 0.00 | 0.00 | 0.00 | 99 | 1018.3 |
| 20260502070749 | 33 | 111 | 0.0 | 0.0 | 0.00 | 0.00 | 0.00 | 99 | 1018.6 |
| 20260502070246 | 33 | 111 | 0.0 | 0.0 | 0.00 | 0.00 | 0.00 | 99 | 1018.6 |
| 20260502065744 | 34 | 109 | 0.0 | 0.0 | 0.00 | 0.00 | 0.00 | 99 | 1018.7 |
| 20260502065242 | 33 | 109 | 0.0 | 0.0 | 0.00 | 0.00 | 0.00 | 99 | 1018.7 |
| 20260502064740 | 33 | 111 | 0.0 | 0.0 | 0.00 | 0.00 | 0.00 | 99 | 1018.6 |
| 20260502064238 | 34 | 111 | 0.0 | 0.0 | 0.00 | 0.00 | 0.00 | 99 | 1018.7 |
| 20260502063735 | 34 | 111 | 0.0 | 0.0 | 0.00 | 0.00 | 0.00 | 99 | 1018.6 |
| 20260502063233 | 34 | 109 | 0.0 | 0.0 | 0.00 | 0.00 | 0.00 | 99 | 1018.7 |
| 20260502062730 | 35 | 111 | 0.0 | 0.0 | 0.00 | 0.00 | 0.00 | 99 | 1018.9 |
| 20260502062227 | 35 | 111 | 0.0 | 0.0 | 0.00 | 0.00 | 0.00 | 99 | 1018.8 |
| 20260502061726 | 35 | 109 | 0.0 | 0.0 | 0.00 | 0.00 | 0.00 | 99 | 1019.0 |
| 20260502061223 | 35 | 109 | 0.0 | 0.0 | 0.00 | 0.00 | 0.00 | 99 | 1019.0 |
| 20260502060718 | 35 | 109 | 0.0 | 0.0 | 0.00 | 0.00 | 0.00 | 99 | 1019.2 |
| 20260502060214 | 35 | 112 | 0.0 | 0.0 | 0.00 | 0.00 | 0.00 | 99 | 1019.1 |
| 20260502055712 | 35 | 109 | 0.0 | 0.0 | 0.00 | 0.00 | 0.00 | 99 | 1019.1 |
| 20260502055210 | 35 | 109 | 0.0 | 0.0 | 0.00 | 0.00 | 0.00 | 99 | 1019.0 |
| 20260502054709 | 35 | 109 | 0.0 | 0.0 | 0.00 | 0.00 | 0.00 | 99 | 1019.1 |
| 20260502054206 | 35 | 109 | 0.0 | 0.0 | 0.00 | 0.00 | 0.00 | 99 | 1019.3 |
| 20260502053703 | 36 | 109 | 0.0 | 0.0 | 0.00 | 0.00 | 0.00 | 99 | 1019.3 |
| 20260502053200 | 36 | 109 | 0.0 | 0.0 | 0.00 | 0.00 | 0.00 | 99 | 1019.2 |
| 20260502052658 | 36 | 109 | 0.0 | 0.0 | 0.00 | 0.00 | 0.00 | 98 | 1019.4 |
| 20260502052156 | 36 | 112 | 0.0 | 0.0 | 0.00 | 0.00 | 0.00 | 98 | 1019.3 |
| 20260502051654 | 36 | 109 | 0.0 | 0.0 | 0.00 | 0.00 | 0.00 | 98 | 1019.2 |
| 20260502051152 | 36 | 112 | 0.0 | 0.0 | 0.00 | 0.00 | 0.00 | 98 | 1019.3 |
| 20260502050648 | 36 | 109 | 0.0 | 0.0 | 0.00 | 0.00 | 0.00 | 98 | 1019.3 |
| 20260502050145 | 36 | 112 | 0.0 | 0.0 | 0.00 | 0.00 | 0.00 | 98 | 1019.4 |
| 20260502045641 | 37 | 109 | 0.0 | 0.0 | 0.00 | 0.00 | 0.00 | 98 | 1019.3 |
| 20260502045139 | 37 | 109 | 0.0 | 0.0 | 0.00 | 0.00 | 0.00 | 98 | 1019.3 |
| 20260502044635 | 37 | 109 | 0.0 | 0.0 | 0.00 | 0.00 | 0.00 | 97 | 1019.2 |
| 20260502044131 | 37 | 109 | 0.0 | 0.0 | 0.00 | 0.00 | 0.00 | 97 | 1019.7 |
| 20260502043630 | 37 | 109 | 0.0 | 0.0 | 0.00 | 0.00 | 0.00 | 97 | 1019.4 |
| 20260502043127 | 37 | 109 | 0.0 | 0.0 | 0.00 | 0.00 | 0.00 | 97 | 1019.6 |
| 20260502042626 | 37 | 112 | 0.0 | 0.0 | 0.00 | 0.00 | 0.00 | 97 | 1019.6 |
| 20260502042123 | 37 | 109 | 0.0 | 0.0 | 0.00 | 0.00 | 0.00 | 96 | 1019.3 |
| 20260502041621 | 38 | 109 | 0.0 | 0.0 | 0.00 | 0.00 | 0.00 | 96 | 1019.3 |
| 20260502041118 | 38 | 109 | 0.0 | 0.0 | 0.00 | 0.00 | 0.00 | 96 | 1019.3 |
| 20260502040615 | 38 | 109 | 0.0 | 0.0 | 0.00 | 0.00 | 0.00 | 95 | 1019.2 |
| 20260502040112 | 38 | 109 | 0.0 | 0.0 | 0.00 | 0.00 | 0.00 | 95 | 1019.4 |
| 20260502035608 | 39 | 109 | 0.0 | 0.0 | 0.00 | 0.00 | 0.00 | 94 | 1019.4 |
| 20260502035105 | 39 | 109 | 0.0 | 0.0 | 0.00 | 0.00 | 0.00 | 94 | 1019.3 |
| 20260502034603 | 39 | 109 | 0.0 | 0.0 | 0.00 | 0.00 | 0.00 | 92 | 1019.2 |
| 20260502034101 | 39 | 109 | 0.0 | 0.0 | 0.00 | 0.00 | 0.00 | 92 | 1019.2 |
| 20260502033559 | 40 | 109 | 0.0 | 0.0 | 0.00 | 0.00 | 0.00 | 92 | 1019.3 |
| 20260502033056 | 40 | 109 | 0.0 | 0.0 | 0.00 | 0.00 | 0.00 | 92 | 1019.3 |
| 20260502032552 | 41 | 110 | 0.0 | 0.0 | 0.00 | 0.00 | 0.00 | 91 | 1019.2 |
| 20260502032049 | 41 | 110 | 0.0 | 0.0 | 0.00 | 0.00 | 0.00 | 90 | 1019.2 |
| 20260502031547 | 42 | 110 | 0.0 | 0.0 | 0.00 | 0.00 | 0.00 | 90 | 1019.3 |
| 20260502031044 | 42 | 110 | 0.0 | 0.0 | 0.00 | 0.00 | 0.00 | 89 | 1019.3 |
| 20260502030543 | 42 | 110 | 0.0 | 0.0 | 0.00 | 0.00 | 0.00 | 88 | 1019.4 |
| 20260502030040 | 42 | 110 | 0.0 | 0.0 | 0.00 | 0.00 | 0.00 | 87 | 1019.3 |
| 20260502025538 | 43 | 110 | 0.0 | 0.0 | 0.00 | 0.00 | 0.00 | 87 | 1019.4 |
| 20260502025036 | 43 | 110 | 0.0 | 0.0 | 0.00 | 0.00 | 0.00 | 85 | 1019.3 |
| 20260502024533 | 44 | 110 | 0.0 | 0.0 | 0.00 | 0.00 | 0.00 | 84 | 1019.3 |
| 20260502024032 | 44 | 110 | 0.0 | 0.0 | 0.00 | 0.00 | 0.00 | 83 | 1019.5 |
| 20260502023528 | 45 | 110 | 0.0 | 0.0 | 0.00 | 0.00 | 0.00 | 82 | 1019.2 |
| 20260502023026 | 45 | 110 | 0.0 | 0.0 | 0.00 | 0.00 | 0.00 | 80 | 1019.5 |
| 20260502022522 | 45 | 113 | 0.0 | 0.0 | 0.00 | 0.00 | 0.00 | 79 | 1019.3 |